Flag for Namibia Weather past 2 weeks in Windhoek, Namibia

Now
52 °F

Sunny.


Feels Like: 49 °F
Forecast: 53 / 80 °F
Wind: 7 mph from East

Location: Windhoek


UV Index: 5 (Moderate)

Visibility: 10 mi


Pressure: 30.18 "Hg

Humidity: 50%

Dew point: 34 °F

Location of WindhoekLocation

Historic Weather in Windhoek

°F

Windhoek temperature yesterday

Maximum temperature yesterday: 77 °F (at 2:00 PM)
Minimum temperature yesterday: 48 °F (at 5:00 AM)
Average temperature yesterday: 62 °F

Past Weeks' High & Low Weather Summary

 TemperatureHumidityPressure
High81 °F (Apr 16, 12:00 PM)100% (Apr 13, 8:00 PM)30.36 "Hg (Apr 13, 8:00 PM)
Low48 °F (Apr 23, 5:00 AM)13% (Apr 23, 3:00 PM)30.09 "Hg (Apr 21, 4:00 PM)
Average63 °F59%30.24 "Hg
* Reported Apr 9 6:00 AM — Apr 24 6:00 AM, Windhoek, Weather by CustomWeather, © 2014

Note: Actual official high and low records may vary slightly from our data, if they occured in-between our weather recording intervals... More about our weather records

Advertising

Historic Weather Conditions — Data for Previous 24 hours

 ConditionsComfort  
Time TempWeatherWind HumidityBarometerVisibility
6:00 AM
Apr 24
50 °FSunny.12 mph54%30.15 "Hg10 mi
5:00 AM50 °FCool.8 mph54%30.15 "HgN/A
4:00 AM52 °FCool.9 mph50%30.15 "HgN/A
3:00 AM50 °FCool.9 mph54%30.15 "HgN/A
2:00 AM52 °FCool.7 mph50%30.15 "HgN/A
1:00 AM50 °FCool.9 mph47%30.15 "HgN/A
12:00 AM55 °FRefreshingly cool.6 mph33%30.15 "HgN/A
11:00 PM
Apr 23
57 °FRefreshingly cool.7 mph36%30.15 "HgN/A
10:00 PM59 °FRefreshingly cool.5 mph29%30.18 "HgN/A
9:00 PM55 °FRefreshingly cool.3 mph36%30.15 "HgN/A
8:00 PM57 °FRefreshingly cool.3 mph31%30.15 "HgN/A
7:00 PM63 °FClear.No wind22%30.15 "Hg10 mi
6:00 PM66 °FClear.No wind17%30.12 "Hg10 mi
5:00 PM72 °FClear.10 mph13%30.12 "Hg10 mi
4:00 PM75 °FSunny.9 mph14%30.09 "Hg10 mi
3:00 PM75 °FSunny.10 mph13%30.09 "Hg10 mi
2:00 PM77 °FSunny.8 mph14%30.09 "Hg10 mi
1:00 PM75 °FSunny.7 mph15%30.12 "Hg10 mi
12:00 PM73 °FSunny.6 mph16%30.12 "Hg10 mi
11:00 AM72 °FSunny.7 mph19%30.15 "Hg10 mi
10:00 AM70 °FSunny.5 mph23%30.18 "Hg10 mi
9:00 AM68 °FSunny.No wind24%30.18 "Hg10 mi
8:00 AM61 °FSunny.3 mph36%30.18 "Hg10 mi
7:00 AM52 °FSunny.3 mph47%30.15 "Hg10 mi
Weather by CustomWeather, © 2014

See weather overview